EW3608 Weather Reports


time (UTC)temp
C
wind
direction
speed
KPH
gust
KPH
rain 1hr
cm
rain 24hr
cm
rain mn
cm
humidity
%
barometer
mb
20260507112007 5 234 3.2 8.0 0.00 2.24 0.00 58 1015.6
20260507111520 4 108 3.2 8.0 0.00 2.24 0.00 64 1015.4
20260507111006 3 61 4.8 6.4 0.00 2.24 0.00 69 1015.4
20260507110507 3 346 1.6 4.8 0.00 2.24 0.00 71 1015.4
20260507110003 3 51 3.2 4.8 0.00 2.24 0.00 68 1015.5
20260507105506 3 212 0.0 3.2 0.00 2.24 0.00 68 1015.6
20260507105004 3 128 0.0 3.2 0.00 2.24 0.00 67 1015.6
20260507104511 4 158 0.0 3.2 0.00 2.24 0.00 66 1015.6
20260507104009 5 126 0.0 3.2 0.00 2.24 0.00 63 1015.6
20260507103509 5 213 0.0 3.2 0.00 2.24 0.00 62 1015.5
20260507103026 5 209 1.6 6.4 0.00 2.24 0.00 64 1015.4
20260507102506 4 270 0.0 6.4 0.00 2.24 0.00 62 1015.5
20260507102003 3 234 0.0 3.2 0.00 2.24 0.00 66 1015.7
20260507101508 3 277 0.0 3.2 0.00 2.24 0.00 65 1015.6
20260507101002 3 180 0.0 3.2 0.00 2.24 0.00 66 1015.7
20260507100506 3 180 0.0 9.7 0.00 2.24 0.00 67 1015.7
20260507100020 3 188 1.6 9.7 0.00 2.24 0.00 66 1015.7
20260507095508 3 283 0.0 3.2 0.00 2.24 0.00 65 1015.8
20260507095006 3 261 0.0 3.2 0.00 2.24 0.00 65 1015.8
20260507094523 3 252 1.6 3.2 0.00 2.24 0.00 64 1015.9
20260507094005 3 209 0.0 3.2 0.00 2.24 0.00 64 1015.9
20260507093502 4 219 1.6 3.2 0.00 2.24 0.00 65 1015.9
20260507093007 4 15 0.0 3.2 0.00 2.24 0.00 61 1015.8
20260507092506 4 207 0.0 12.9 0.00 2.24 0.00 64 1015.8
20260507090010 4 254 0.0 9.7 0.00 2.24 0.00 64 1015.9
20260507085503 5 55 0.0 4.8 0.00 2.24 0.00 60 1015.9
20260507085003 5 352 0.0 6.4 0.00 2.24 0.00 58 1016.0
20260507084519 5 246 3.2 6.4 0.00 2.24 0.00 57 1015.9
20260507084007 6 254 0.0 8.0 0.00 2.24 0.00 56 1016.0
20260507083508 6 305 3.2 8.0 0.00 2.24 0.00 55 1015.9
20260507083021 5 277 1.6 6.4 0.00 2.24 0.00 56 1016.1
20260507082510 5 287 1.6 12.9 0.00 2.24 0.00 56 1016.1
20260507082002 5 255 1.6 14.5 0.00 2.26 0.00 58 1016.1
20260507081507 3 55 4.8 14.5 0.00 2.26 0.00 67 1015.9
20260507081006 2 352 3.2 6.4 0.00 2.26 0.00 69 1015.9
20260507080507 1 348 1.6 9.7 0.00 2.26 0.00 76 1016.0
20260507080020 1 57 4.8 9.7 0.00 2.26 0.00 76 1016.0
20260507075507 1 101 1.6 6.4 0.00 2.26 0.00 81 1016.1
20260507075003 1 57 1.6 6.4 0.00 2.26 0.00 80 1016.2
20260507074504 0 59 3.2 6.4 0.00 2.26 0.00 82 1016.2
20260507074003 0 59 3.2 4.8 0.00 2.26 0.00 83 1016.3
20260507073504 0 94 1.6 4.8 0.00 2.26 0.00 84 1016.2
20260507073011 0 78 1.6 4.8 0.00 2.26 0.00 83 1016.3
20260507072504 0 210 0.0 4.8 0.00 2.26 0.00 84 1016.3
20260507072008 0 280 1.6 4.8 0.00 2.26 0.00 84 1016.4
20260507071520 0 271 0.0 4.8 0.00 2.26 0.00 85 1016.4
20260507071003 0 282 1.6 4.8 0.00 2.26 0.00 85 1016.5
20260507070503 0 259 1.6 4.8 0.00 2.26 0.00 85 1016.6
20260507070008 0 256 0.0 4.8 0.00 2.26 0.00 86 1016.6
20260507065503 0 117 0.0 4.8 0.00 2.26 0.00 86 1016.6
20260507065006 1 224 1.6 9.7 0.00 2.26 0.00 86 1016.8
20260507064517 0 189 1.6 9.7 0.00 2.26 0.00 89 1016.8
20260507064006 0 278 1.6 8.0 0.00 2.26 0.00 94 1016.9
20260507063510 -1 254 1.6 4.8 0.00 2.26 0.00 94 1017.1
20260507063002 -1 225 1.6 4.8 0.00 2.26 0.00 94 1017.0
20260507062503 -1 244 0.0 1.6 0.00 2.26 0.00 93 1016.9
20260507062004 -1 236 0.0 0.0 0.00 2.26 0.00 93 1016.9
20260507061508 -1 225 0.0 0.0 0.00 2.26 0.00 93 1017.0
20260507061005 -1 225 0.0 0.0 0.00 2.26 0.00 93 1017.1
20260507060506 -1 209 0.0 0.0 0.00 2.26 0.00 93 1017.1
20260507060020 -1 209 0.0 0.0 0.00 2.26 0.00 93 1017.2
20260507055507 -1 190 0.0 0.0 0.00 2.26 2.26 93 1017.2
20260507055002 -1 193 0.0 0.0 0.00 2.26 2.26 93 1017.3
20260507054503 -1 198 0.0 0.0 0.00 2.26 2.26 93 1017.3
20260507054003 -1 166 0.0 0.0 0.00 2.26 2.26 93 1017.3
20260507053505 -1 166 0.0 0.0 0.00 2.26 2.26 93 1017.3
20260507053011 -1 166 0.0 0.0 0.00 2.26 2.26 92 1017.3
20260507052506 -1 166 0.0 0.0 0.00 2.26 2.26 92 1017.3
20260507052008 -1 166 0.0 0.0 0.00 2.26 2.26 92 1017.4
20260507051521 -1 166 0.0 0.0 0.00 2.26 2.26 93 1017.5
20260507051006 -1 166 0.0 0.0 0.00 2.26 2.26 93 1017.7
20260507050503 -1 173 0.0 3.2 0.00 2.26 2.26 93 1017.7
20260507050020 -1 175 0.0 3.2 0.00 2.26 2.26 92 1017.7
20260507045503 -1 179 0.0 3.2 0.00 2.26 2.26 92 1017.8
20260507045006 -1 179 0.0 3.2 0.00 2.26 2.26 92 1017.8
20260507044517 -1 177 0.0 3.2 0.00 2.26 2.26 92 1017.9
20260507044012 -1 177 0.0 3.2 0.00 2.26 2.26 92 1017.9
20260507043511 -1 177 0.0 3.2 0.00 2.26 2.26 92 1018.0
20260507043026 0 177 0.0 3.2 0.00 2.26 2.26 92 1018.0
20260507042503 0 177 0.0 3.2 0.00 2.29 2.26 92 1017.8
20260507042003 0 177 0.0 3.2 0.00 2.29 2.26 92 1018.0
20260507041510 0 183 0.0 3.2 0.00 2.29 2.26 92 1018.0
20260507041006 0 181 0.0 3.2 0.00 2.29 2.26 91 1018.1
20260507040507 0 207 0.0 3.2 0.00 2.29 2.26 91 1018.2
20260507040018 0 207 0.0 3.2 0.00 2.29 2.26 91 1018.3
20260507035515 0 208 0.0 3.2 0.00 2.29 2.26 91 1018.2
20260507035009 0 208 0.0 3.2 0.00 2.29 2.26 90 1018.4
20260507034505 0 220 0.0 3.2 0.00 2.29 2.26 90 1018.4
20260507034003 0 221 0.0 3.2 0.00 2.29 2.26 90 1018.2
20260507033504 0 221 0.0 3.2 0.00 2.29 2.26 90 1018.2
20260507033013 0 221 0.0 3.2 0.00 2.29 2.26 90 1018.2
20260507032512 0 221 0.0 3.2 0.00 2.29 2.26 89 1018.3
20260507032009 0 222 0.0 3.2 0.00 2.29 2.26 89 1018.3
20260507031532 0 222 0.0 3.2 0.00 2.29 2.26 89 1018.3
20260507031012 0 222 0.0 3.2 0.00 2.29 2.26 88 1018.2
20260507030504 0 222 0.0 3.2 0.00 2.29 2.26 88 1018.2
20260507030006 0 222 0.0 3.2 0.00 2.29 2.26 87 1018.1
20260507025504 0 222 0.0 3.2 0.00 2.29 2.26 87 1018.0
20260507025005 0 127 0.0 3.2 0.00 2.29 2.26 86 1018.0
20260507024516 1 127 0.0 3.2 0.00 2.29 2.26 86 1018.0
20260507024005 1 127 0.0 3.2 0.00 2.29 2.26 85 1018.0
20260507023510 1 127 0.0 3.2 0.00 2.29 2.26 85 1018.0
20260507023026 1 127 0.0 3.2 0.00 2.29 2.26 84 1018.0
20260507022504 1 127 0.0 3.2 0.00 2.29 2.26 83 1018.0
20260507022005 1 123 0.0 3.2 0.00 2.29 2.26 82 1017.8
20260507021507 2 123 0.0 3.2 0.00 2.29 2.26 81 1017.8
20260507021008 2 121 0.0 3.2 0.00 2.29 2.26 81 1017.8
20260507020508 2 121 0.0 1.6 0.00 2.29 2.26 79 1017.6
20260507020024 2 121 0.0 0.0 0.00 2.29 2.26 78 1017.6
20260507015508 2 121 0.0 3.2 0.00 2.29 2.26 78 1017.6
20260507015011 2 121 0.0 4.8 0.00 2.29 2.26 77 1017.6
20260507014508 3 118 0.0 4.8 0.00 2.29 2.26 76 1017.5
20260507014004 3 164 0.0 3.2 0.00 2.29 2.26 75 1017.7
20260507013505 3 156 0.0 4.8 0.00 2.29 2.26 75 1017.6
20260507013011 3 166 0.0 4.8 0.00 2.29 2.26 75 1017.6
20260507012508 3 188 1.6 4.8 0.00 2.29 2.26 74 1017.7
20260507012007 3 215 1.6 6.4 0.00 2.29 2.26 73 1017.6
20260507011531 3 212 1.6 9.7 0.00 2.29 2.26 74 1017.6
20260507011009 3 217 0.0 9.7 0.00 2.29 2.26 74 1017.8
20260507010511 3 158 4.8 9.7 0.00 2.29 2.26 73 1017.8
20260507010010 3 226 1.6 11.3 0.00 2.29 2.26 74 1017.8
20260507005508 3 168 1.6 9.7 0.00 2.29 2.26 72 1017.8
20260507005010 3 194 1.6 8.0 0.00 2.29 2.26 72 1017.9
20260507004515 3 215 3.2 11.3 0.00 2.29 2.26 72 1017.9
20260507004007 3 209 4.8 9.7 0.00 2.29 2.26 71 1017.9
20260507003512 3 166 1.6 8.0 0.00 2.29 2.26 71 1018.0
20260507003025 4 216 4.8 8.0 0.00 2.29 2.26 71 1018.0
20260507002510 4 103 3.2 9.7 0.00 2.29 2.26 70 1018.1
20260507002004 4 167 3.2 9.7 0.00 2.29 2.26 69 1018.1
20260507001514 5 188 1.6 9.7 0.00 2.29 2.26 70 1018.2
20260507001007 5 168 3.2 12.9 0.00 2.29 2.26 68 1018.1
20260507000507 5 217 3.2 12.9 0.00 2.29 2.26 68 1018.3
20260507000023 5 184 1.6 8.0 0.00 2.29 2.26 69 1018.4
20260506235508 5 134 1.6 11.3 0.00 2.29 2.26 69 1018.4
20260506235010 5 161 1.6 11.3 0.00 2.29 2.26 68 1018.5
20260506234528 5 238 4.8 12.9 0.00 2.29 2.26 70 1018.5
20260506234003 5 139 4.8 14.5 0.00 2.29 2.26 69 1018.5
20260506233504 5 150 4.8 14.5 0.00 2.29 2.26 69 1018.5
20260506233016 5 250 3.2 11.3 0.00 2.29 2.26 73 1018.5
20260506232505 4 159 4.8 11.3 0.03 2.29 2.26 68 1018.6
20260506232010 4 202 1.6 9.7 0.03 2.29 2.26 70 1018.6
20260506231523 4 101 3.2 9.7 0.03 2.29 2.26 71 1018.5
20260506231010 4 157 1.6 9.7 0.05 2.29 2.26 72 1018.3
20260506230510 3 139 3.2 9.7 0.08 2.29 2.26 71 1018.2
20260506230010 3 115 3.2 9.7 0.08 2.29 2.26 71 1018.3
20260506225508 4 157 1.6 6.4 0.10 2.29 2.26 73 1018.4
20260506225011 4 195 1.6 6.4 0.13 2.29 2.26 72 1018.6
20260506224517 4 105 3.2 8.0 0.15 2.29 2.26 70 1018.6
20260506224009 4 148 1.6 11.3 0.18 2.29 2.26 71 1018.6
20260506223510 4 163 1.6 8.0 0.20 2.29 2.26 74 1018.8
20260506223025 4 108 1.6 9.7 0.23 2.29 2.26 73 1018.8
20260506222511 3 103 3.2 9.7 0.25 2.26 2.24 71 1018.9
20260506222007 3 111 3.2 8.0 0.30 2.26 2.24 70 1019.0
20260506221514 4 156 1.6 8.0 0.36 2.29 2.24 69 1018.9
20260506221007 4 161 1.6 8.0 0.36 2.26 2.21 69 1018.9
20260506220507 4 150 3.2 8.0 0.38 2.24 2.18 71 1019.0
20260506220024 4 128 1.6 6.4 0.43 2.24 2.18 70 1019.1
20260506215510 4 146 3.2 9.7 0.43 2.21 2.16 71 1019.2
20260506215011 4 187 3.2 9.7 0.48 2.21 2.13 71 1019.3
20260506214529 4 162 1.6 8.0 0.48 2.18 2.11 70 1019.3
20260506214004 3 135 1.6 12.9 0.48 2.16 2.08 73 1019.4
20260506213506 3 122 1.6 12.9 0.48 2.13 2.06 72 1019.5
20260506213018 3 217 4.8 12.9 0.51 2.11 2.03 71 1019.6
20260506212507 3 162 3.2 12.9 0.48 2.06 1.98 72 1019.7
20260506212015 4 151 3.2 8.0 0.48 2.01 1.93 76 1019.7
20260506211526 3 73 1.6 9.7 0.48 1.96 1.88 71 1019.6
20260506211010 3 95 1.6 9.7 0.53 1.93 1.85 72 1019.8
20260506210503 3 153 1.6 8.0 0.53 1.91 1.80 77 1019.8
20260506210016 3 136 1.6 9.7 0.56 1.85 1.75 75 1019.8
20260506205507 3 184 1.6 6.4 0.61 1.83 1.73 74 1019.9
20260506205010 3 98 3.2 9.7 0.61 1.75 1.65 77 1020.0
20260506204503 3 120 3.2 9.7 0.66 1.73 1.63 77 1020.0
20260506204002 2 195 1.6 6.4 0.71 1.70 1.60 81 1020.0
20260506203502 2 107 0.0 6.4 0.79 1.68 1.57 80 1020.1
20260506203006 3 195 1.6 6.4 0.84 1.65 1.52 79 1020.1
20260506202503 3 115 1.6 6.4 0.89 1.63 1.47 76 1020.3
20260506202007 3 147 1.6 9.7 0.89 1.60 1.45 77 1020.3
20260506201519 3 121 3.2 9.7 0.86 1.55 1.40 77 1020.3
20260506201007 3 161 1.6 9.7 0.81 1.47 1.32 81 1020.3
20260506200503 3 228 1.6 9.7 0.79 1.47 1.27 77 1020.3
20260506200003 3 163 1.6 4.8 0.74 1.40 1.19 79 1020.3
20260506195503 3 186 1.6 4.8 0.69 1.32 1.12 77 1020.3
20260506195004 3 167 1.6 8.0 0.64 1.24 1.04 79 1020.4
20260506194510 3 322 1.6 8.0 0.58 1.17 0.97 80 1020.4
20260506194008 2 109 1.6 6.4 0.53 1.09 0.89 74 1020.5
20260506193505 3 58 3.2 11.3 0.43 0.99 0.79 77 1020.5
20260506193020 3 68 4.8 11.3 0.36 0.89 0.69 74 1020.5
20260506192502 2 175 1.6 8.0 0.30 0.81 0.61 77 1020.6
20260506192006 2 121 3.2 8.0 0.28 0.76 0.56 80 1020.6
20260506191506 2 62 3.2 8.0 0.25 0.74 0.53 77 1020.7
20260506191004 2 32 4.8 9.7 0.25 0.71 0.51 74 1020.8
20260506190504 2 42 3.2 9.7 0.23 0.69 0.48 75 1020.8
20260506190011 2 73 4.8 9.7 0.23 0.69 0.46 74 1020.8
20260506185509 2 146 0.0 4.8 0.20 0.66 0.43 79 1020.8
20260506185007 3 56 1.6 4.8 0.20 0.64 0.41 73 1020.9
20260506184504 3 114 0.0 3.2 0.20 0.61 0.38 79 1020.9
20260506184003 2 158 1.6 4.8 0.18 0.61 0.36 81 1021.0
20260506183505 2 59 1.6 6.4 0.20 0.61 0.36 79 1021.0
20260506183008 2 148 1.6 6.4 0.18 0.58 0.33 82 1021.0
20260506182504 1 138 1.6 9.7 0.15 0.58 0.30 83 1021.2
20260506182008 1 347 1.6 9.7 0.15 0.56 0.28 86 1021.2
20260506181520 1 57 3.2 6.4 0.15 0.56 0.28 86 1021.2
20260506181009 1 46 3.2 12.9 0.13 0.56 0.25 85 1021.3
20260506180502 1 301 1.6 12.9 0.13 0.56 0.25 87 1021.3
20260506180005 1 347 3.2 9.7 0.13 0.56 0.23 88 1021.4
20260506175503 1 348 3.2 9.7 0.13 0.58 0.23 88 1021.3
20260506175003 1 340 3.2 6.4 0.10 0.58 0.20 88 1021.2
20260506174514 1 321 1.6 6.4 0.08 0.56 0.18 89 1021.2
20260506174008 1 346 1.6 6.4 0.08 0.56 0.18 92 1021.1
20260506173509 0 290 0.0 8.0 0.08 0.53 0.15 91 1021.2
20260506173031 0 333 1.6 9.7 0.08 0.56 0.15 91 1021.2
20260506172503 0 352 4.8 12.9 0.08 0.56 0.15 91 1021.2
20260506172006 0 19 1.6 12.9 0.05 0.53 0.13 92 1021.2
20260506171505 0 19 3.2 9.7 0.05 0.53 0.13 92 1021.2
20260506171004 0 342 3.2 9.7 0.08 0.53 0.13 92 1021.1
20260506170505 0 352 3.2 11.3 0.08 0.53 0.13 92 1021.1
20260506170016 0 347 6.4 14.5 0.05 0.51 0.10 92 1021.0
20260506165508 0 30 4.8 14.5 0.05 0.51 0.10 91 1021.0
20260506165007 0 347 4.8 14.5 0.05 0.51 0.10 92 1021.0
20260506164525 0 346 3.2 9.7 0.05 0.51 0.10 92 1021.0
20260506164005 0 17 4.8 14.5 0.05 0.53 0.10 92 1020.9
20260506163504 0 348 6.4 14.5 0.03 0.51 0.08 92 1020.7
20260506163008 0 352 4.8 9.7 0.03 0.51 0.08 92 1020.7
20260506162504 0 9 3.2 9.7 0.03 0.51 0.08 92 1020.6
20260506162009 0 350 3.2 9.7 0.03 0.51 0.08 93 1020.5
20260506161520 0 38 3.2 4.8 0.03 0.51 0.08 93 1020.4
20260506161010 0 5 1.6 4.8 0.00 0.51 0.05 92 1020.3
20260506160513 0 328 0.0 1.6 0.00 0.51 0.05 93 1020.3
20260506160006 0 327 0.0 3.2 0.00 0.51 0.05 93 1020.2
20260506155504 0 328 0.0 3.2 0.00 0.51 0.05 92 1020.2
20260506155006 0 329 0.0 3.2 0.00 0.51 0.05 93 1020.2
20260506154513 0 336 0.0 0.0 0.00 0.53 0.05 93 1020.3
20260506154008 0 328 0.0 0.0 0.03 0.53 0.05 93 1020.3
20260506153507 0 327 0.0 0.0 0.03 0.53 0.05 93 1020.3
20260506153022 0 325 0.0 0.0 0.03 0.56 0.05 93 1020.0
20260506152508 0 321 0.0 0.0 0.03 0.56 0.05 93 1020.0
20260506152004 0 317 0.0 0.0 0.03 0.56 0.05 93 1019.9
20260506151507 0 323 0.0 0.0 0.03 0.58 0.05 93 1020.0
20260506151004 0 328 0.0 0.0 0.03 0.58 0.05 93 1020.1
20260506150505 0 316 0.0 0.0 0.03 0.58 0.05 93 1020.0
20260506150018 0 340 0.0 0.0 0.03 0.61 0.05 94 1019.9
20260506145506 0 42 0.0 0.0 0.03 0.61 0.05 94 1019.9
20260506145011 0 315 0.0 0.0 0.03 0.61 0.05 93 1019.8
20260506144529 0 5 0.0 0.0 0.03 0.64 0.05 94 1019.8
20260506144004 0 5 0.0 0.0 0.00 0.61 0.03 94 1019.6
20260506143504 0 9 0.0 0.0 0.00 0.64 0.03 94 1019.6
20260506143022 0 11 0.0 0.0 0.00 0.64 0.03 94 1019.6
20260506142506 0 12 0.0 0.0 0.00 0.66 0.03 94 1019.5
20260506142008 0 13 0.0 0.0 0.00 0.66 0.03 95 1019.6
20260506141523 0 13 0.0 0.0 0.00 0.69 0.03 95 1019.4
20260506141011 0 14 0.0 0.0 0.00 0.69 0.03 94 1019.4
20260506140511 0 14 0.0 0.0 0.00 0.71 0.03 94 1019.4
20260506140005 0 14 0.0 0.0 0.00 0.71 0.03 95 1019.4
20260506135506 0 15 0.0 0.0 0.00 0.74 0.03 95 1019.3
20260506135008 0 15 0.0 0.0 0.00 0.74 0.03 95 1019.3
20260506134516 0 15 0.0 0.0 0.00 0.76 0.03 95 1019.4
20260506134008 0 15 0.0 0.0 0.00 0.76 0.03 95 1019.4
20260506133516 0 15 0.0 0.0 0.00 0.76 0.03 95 1019.3
20260506133026 0 15 0.0 0.0 0.00 0.76 0.03 95 1019.1
20260506132517 0 15 0.0 0.0 0.00 0.76 0.03 95 1019.1
20260506132005 0 15 0.0 0.0 0.00 0.79 0.03 95 1018.9
20260506131508 0 15 0.0 0.0 0.00 0.79 0.03 95 1018.8
20260506131004 0 15 0.0 0.0 0.00 0.79 0.03 95 1018.7
20260506130507 0 15 0.0 0.0 0.00 0.79 0.03 95 1018.7
20260506130020 0 16 0.0 0.0 0.00 0.79 0.03 95 1018.6
20260506125508 0 16 0.0 0.0 0.00 0.79 0.03 95 1018.4
20260506125010 0 16 0.0 0.0 0.00 0.79 0.03 95 1018.2
20260506124527 0 32 0.0 0.0 0.00 0.79 0.03 95 1018.2
20260506124007 0 32 0.0 0.0 0.00 0.79 0.03 95 1018.1
20260506123503 0 32 0.0 0.0 0.00 0.79 0.03 95 1018.2
20260506123015 0 32 0.0 0.0 0.00 0.81 0.03 95 1018.0
20260506122508 0 32 0.0 0.0 0.00 0.81 0.03 95 1018.0
20260506122007 0 32 0.0 0.0 0.00 0.81 0.03 95 1017.9
20260506121522 0 30 0.0 0.0 0.00 0.81 0.03 95 1018.0
20260506121011 0 30 0.0 0.0 0.00 0.81 0.03 95 1018.1
20260506120506 0 30 0.0 0.0 0.00 0.81 0.03 95 1018.1
20260506120014 0 30 0.0 0.0 0.00 0.81 0.03 95 1017.8
20260506115507 0 30 0.0 0.0 0.00 0.81 0.03 95 1017.7
20260506115007 0 19 0.0 0.0 0.00 0.84 0.03 95 1017.6
20260506114519 0 17 0.0 0.0 0.00 0.84 0.03 95 1017.7
20260506114007 0 13 0.0 0.0 0.00 0.84 0.03 95 1017.7
20260506113507 0 13 0.0 0.0 0.00 0.86 0.03 95 1017.7
20260506113005 0 13 0.0 0.0 0.00 0.86 0.03 95 1017.6
20260506112503 0 13 0.0 0.0 0.00 0.86 0.03 95 1017.6